Lid_Strength_Index
7 10 12 12 10 9 10 11 10 8 7 9 9 9 7 6 6 7 7 6 6 5 4 3 3 2 3 3 2 2 2 2 2 2 3 3 3 2 1 1 1 1 1 0
11 13 10 8 8 9 10 11 11 8 7 8 8 9 7 7 7 7 6 7 6 5 4 4 3 3 3 3 3 2 2 2 2 2 2 2 2 2 2 1 1 1 1 0
12 11 8 8 8 9 10 11 11 10 8 8 9 10 9 7 7 6 6 6 5 5 5 4 4 3 3 3 3 2 3 2 2 2 2 2 2 2 2 2 2 1 0 1
11 8 8 8 9 8 11 8 8 9 10 14 9 15 10 9 8 6 7 8 6 5 5 4 4 4 3 3 3 2 2 2 2 2 3 3 3 4 3 2 2 2 1 1
12 10 10 10 9 7 9 7 8 8 10 12 11 14 12 9 9 8 8 7 6 5 5 5 4 4 3 3 3 2 2 2 2 1 2 3 3 2 2 2 2 2 2 1
9 7 8 9 7 7 6 8 9 9 10 15 12 13 13 11 9 8 7 6 5 5 5 4 4 3 3 3 3 3 3 3 2 1 2 2 3 3 3 3 3 2 2 2
10 10 8 7 9 8 8 10 14 17 16 17 11 12 12 9 8 8 7 6 6 5 5 5 4 4 4 4 3 3 3 3 2 2 2 2 2 3 3 3 3 3 3 3
13 14 10 8 9 10 11 10 14 19 19 16 11 14 12 8 7 7 6 6 6 6 5 5 4 4 4 4 3 3 3 3 2 2 2 2 2 2 2 2 2 2 3 2
13 13 8 8 7 8 10 11 9 13 13 15 13 12 9 8 8 7 7 6 6 6 6 5 4 4 4 4 3 3 3 3 2 2 3 2 2 2 2 2 2 2 2 1
10 13 9 8 7 8 9 8 12 14 18 19 14 13 14 10 10 8 8 7 7 6 5 5 4 5 4 3 3 3 3 3 2 2 2 2 2 1 2 2 2 3 2 2
9 11 10 8 10 11 10 11 11 12 13 17 18 15 9 9 9 8 8 7 6 6 5 5 4 4 3 3 3 3 3 3 3 2 3 2 2 2 1 2 1 1 2 2
9 11 12 11 8 8 8 10 11 13 16 13 14 14 8 8 8 7 7 6 6 6 5 5 4 5 4 4 3 3 3 3 3 2 2 2 2 2 2 2 1 1 1 1
8 11 15 13 11 9 10 9 10 11 12 14 15 14 7 7 7 7 7 6 6 6 6 5 4 5 4 4 3 3 3 3 2 2 3 3 2 2 2 2 1 1 1 1
6 10 12 15 12 10 11 10 9 11 14 13 12 12 10 8 8 8 7 6 6 6 5 5 5 6 4 4 3 3 3 3 3 2 3 3 3 2 2 2 1 1 1 1
9 11 10 10 9 10 9 9 9 10 11 12 11 11 9 9 9 8 6 6 6 6 6 5 5 5 5 4 4 3 3 4 3 2 2 3 2 2 2 3 2 1 2 1
11 11 10 11 9 10 11 9 9 9 9 10 10 10 8 6 7 7 6 6 6 6 5 4 4 5 5 3 3 3 3 4 4 3 2 2 2 2 2 2 3 1 2 2
12 13 11 13 11 11 13 10 9 9 9 9 11 10 8 8 7 7 7 6 6 5 5 5 4 4 5 3 3 3 3 4 4 2 2 2 2 3 2 2 2 2 2 2
13 13 13 12 12 17 11 8 7 9 8 9 9 8 7 7 7 6 6 6 5 5 5 4 4 4 5 3 3 3 3 4 4 3 2 2 2 2 2 2 2 3 2 2
10 12 15 14 14 11 10 9 9 9 10 7 8 7 6 6 7 8 6 4 5 4 4 4 3 3 4 4 3 2 3 4 4 3 2 2 2 2 3 3 3 2 3 2
9 9 13 15 16 16 10 8 6 7 12 8 7 8 8 7 9 9 5 4 4 4 3 4 3 3 4 4 3 3 3 4 4 3 2 2 2 2 3 3 2 2 2 3
13 13 15 15 16 12 8 7 7 13 12 7 7 7 7 8 8 6 5 5 4 4 3 3 3 4 4 3 3 3 3 3 3 2 2 3 3 2 2 2 2 2 2 2
14 15 15 14 16 16 7 7 10 9 8 6 6 6 7 6 5 5 5 4 4 4 3 3 3 4 4 4 3 4 3 3 2 2 2 3 3 1 1 2 3 2 3 3
15 12 14 13 13 8 7 8 6 6 7 6 6 6 5 6 5 5 5 5 4 4 3 3 3 3 4 4 3 4 3 2 2 3 3 2 3 2 1 2 3 3 3 3
11 9 12 12 10 8 7 6 5 6 6 6 5 5 5 5 5 5 5 5 4 4 4 3 3 3 4 4 4 3 2 2 2 3 3 2 3 2 2 2 2 2 3 4
11 10 11 11 9 8 7 7 5 5 5 5 5 5 5 5 5 5 4 4 4 4 4 3 3 3 4 4 4 3 2 2 3 3 2 3 3 2 2 2 2 3 3 3
9 11 12 13 9 9 9 8 5 6 6 6 6 5 5 4 4 4 5 4 4 4 4 3 3 3 3 3 3 3 2 2 3 3 2 3 3 2 2 2 4 11 9 8